Regional Weather Roundup
Issued by NWS

Home | Current Version | Previous Version | Text Only | Print | Product List | Glossary Off
Versions: 1 2 3 4 5 6 7 8 9 10 11 12 13 14 15 16 17 18 19 20 21 22 23 24 25 26 27 28 29 30 31 32 33 34 35 36 37 38 39 40 41 42 43 44 45 46 47 48 49 50

929
ASUS43 KMPX 300401
RWRMN
WEATHER ROUNDUP FOR MINNESOTA
NATIONAL WEATHER SERVICE TWIN CITIES/CHANHASSEN MN
1100 PM CDT FRI APR 29 2016


NOTE: "FAIR" INDICATES FEW OR NO CLOUDS BELOW 12,000 FEET WITH NO
SIGNIFICANT WEATHER AND/OR OBSTRUCTIONS TO VISIBILITY. N/A MEANS
CURRENT SKY AND/OR WEATHER CONDITIONS ARE NOT AVAILABLE.

MNZ060>063-068>070-300500-
   Twin Cities Metro

CITY           SKY/WX    TMP DP  RH WIND       PRES   REMARKS
TWIN CITIES    CLOUDY    51  39  63 E3        30.11S
ST PAUL        CLOUDY    47  42  83 CALM      30.13R
CRYSTAL        CLOUDY    46  37  71 N5        30.10S
BLAINE         CLEAR     52  37  58 NE8       30.11S
EDEN PRAIRIE   PTCLDY    50  38  63 SE3       30.10S
SOUTH ST PAUL  PTCLDY    47  40  75 S3        30.12R
LAKE ELMO      FAIR      46  41  81 NE6       30.13R
$$
MNZ001>005-007-008-013>017-022>024-027-028-300500-
   Northwest Minnesota

CITY           SKY/WX    TMP DP  RH WIND       PRES   REMARKS
BEMIDJI        CLEAR     46  31  55 NE9       30.18R
HALLOCK        CLEAR     48  30  49 E9        30.20S
ROSEAU         CLEAR     45  34  65 NE5       30.22S
WARROAD        CLEAR     46  32  57 NE8       30.23S
THIEF RVR FALL CLEAR     48  30  49 NE8       30.20S
CROOKSTON      CLEAR     48  34  57 E9        30.19R
FOSSTON        CLEAR     46  30  53 E10       30.18S
DETROIT LAKES  CLEAR     50  32  50 E5        30.14S
MOORHEAD       CLEAR     52  34  50 NE12      30.12F
PARK RAPIDS    CLEAR     51  30  44 NE7       30.14S
MAHNOMEN       FAIR      48  32  53 NE12      30.15S
$$
MNZ006-009>011-018-025>026-300500-
   North Central Minnesota

CITY           SKY/WX    TMP DP  RH WIND       PRES   REMARKS
BAUDETTE       CLEAR     45  29  53 E9        30.23S
FLAG ISLAND    PTCLDY    48  28  46 NE6       30.23S
INTL FALLS     CLEAR     45  31  58 E7        30.24S
WASKISH        CLEAR     45  34  65 NE7       30.21S
BIG FORK       CLEAR     45  30  57 E6        30.22S
LONGVILLE      CLEAR     46  30  53 E6        30.19R
GRAND RAPIDS   CLEAR     45  27  49 E3        30.22S
CRANE LAKE     CLEAR     30  28  93 CALM      30.27S
ORR            CLEAR     39  28  65 CALM      30.22S
COOK           CLEAR     37  30  75 CALM      30.24S
WALKER         FAIR      51  33  50 E10G17    30.17R
$$
MNZ012-019>021-037-300500-
   Northeast Minnesota

CITY           SKY/WX    TMP DP  RH WIND       PRES   REMARKS
DULUTH         CLEAR     38  28  67 NE8       30.21S
ELY            CLEAR     39  30  70 CALM      30.24S
HIBBING        CLEAR     36  29  75 E5        30.22R
EVELETH        CLEAR     34  30  86 CALM      30.24R
DULUTH HARBOR  CLEAR     39  36  87 E5        30.24S
TWO HARBORS    CLEAR     39  30  70 N5        30.21S
SILVER BAY     CLEAR     32  27  80 CALM      30.22R
GRAND MARAIS     N/A     43  33  68 CALM      30.24R
G MARAIS ARPRT CLOUDY    39  28  65 N3        30.23S
$$
MNZ029>031-032-039>041-046>048-054>057-064-300500-
   West Central Minnesota

CITY           SKY/WX    TMP DP  RH WIND       PRES   REMARKS
FERGUS FALLS   CLEAR     52  36  54 E5        30.10R
WHEATON        CLOUDY    48  39  71 CALM      30.12F
MORRIS         CLEAR     46  37  71 E5        30.10R
ALEXANDRIA     CLEAR     45  32  60 E6        30.12S
ELBOW LAKE     FAIR      47  42  82 CALM      30.12S
WADENA         CLEAR     48  32  53 NE5       30.12F
GLENWOOD       PTCLDY    45  36  70 NE7       30.11S
APPLETON       CLEAR     45  39  81 E3        30.09S
BENSON         CLEAR     48  36  61 SE5       30.10S
ORTONVILLE     CLOUDY    46  41  81 CALM      30.10R
MADISON        PTCLDY    46  39  76 E5        30.09S
WILLMAR        FAIR      46  39  76 NE3       30.11S
$$
MNZ033>034-036-042>043-049>051-058-059-300500-
   Central Minnesota

CITY           SKY/WX    TMP DP  RH WIND       PRES   REMARKS
ST CLOUD       CLEAR     50  32  50 NE7       30.12S
SAUK CENTRE    FAIR      47  33  60 NE6       30.11F
PAYNESVILLE    CLOUDY    43  36  76 E3        30.11S
AITKIN         CLEAR     45  28  53 NE6       30.16F
PINE RIVER     CLEAR     48  34  57 E9        30.20R
BRAINERD       CLEAR     47  31  53 E7        30.15S
STAPLES        CLEAR     46  28  49 CALM      30.13S
LONG PRAIRIE   FAIR      45  32  61 NE3       30.12F
LITTLE FALLS   CLEAR     48  32  53 E6        30.13F
LITCHFIELD     CLOUDY    46  39  76 CALM      30.10F
BUFFALO        CLOUDY    49  35  59 NE9       30.12R
MAPLE LAKE     CLOUDY    51  36  57 NE9       30.12S
HUTCHINSON     CLEAR     44  38  82 CALM      30.11S
$$
MNZ037-044-045-052-053-300500-
   East Central Minnesota

CITY           SKY/WX    TMP DP  RH WIND       PRES   REMARKS
PRINCETON      CLEAR     52  32  46 NE8       30.13S
MORA           CLEAR     45  32  61 NE6       30.17S
CAMBRIDGE      CLEAR     52  36  54 NE7       30.12S
RUSH CITY      PTCLDY    47  32  55 NE12      30.14F
MOOSE LAKE     CLEAR     39  30  70 NE7       30.18S
HINCKLEY       FAIR      43  32  65 NE7       30.17S
CLOQUET        CLEAR     39  28  65 NE7       30.20F
MCGREGOR       CLEAR     43  32  65 E9        30.18F
$$
MNZ071>073-080-081-089-090-097-098-300500-
   Southwest Minnesota

CITY           SKY/WX    TMP DP  RH WIND       PRES   REMARKS
MONTEVIDEO     PTCLDY    43  39  87 E3        30.11S
GRANITE FALLS  PTCLDY    44  40  85 NE5       30.10F
CANBY          CLOUDY    46  44  93 CALM      30.09F
MARSHALL       CLOUDY    46  39  76 E9        30.08F
REDWOOD FALLS  PTCLDY    48  37  65 E5        30.08F
OLIVIA         CLOUDY    46  37  71 E5        30.09S
WINDOM         CLOUDY    45  39  81 CALM      30.09R
WORTHINGTON    MOCLDY    43  41  93 E7        30.08R
JACKSON        PTCLDY    43  37  81 E6        30.10R
TRACY          PTCLDY    46  40  81 E7        30.08R
SLAYTON        PTCLDY    44  42  91 E7        30.07S
$$
MNZ065>067-074>077-082>085-091>093-300500-
   South Central Minnesota

CITY           SKY/WX    TMP DP  RH WIND       PRES   REMARKS
MANKATO        CLOUDY    48  39  71 E6        30.09S
NEW ULM        CLOUDY    48  41  76 CALM      30.09S
ST JAMES       PTCLDY    41  36  81 E3        30.10R
FAIRMONT       CLOUDY    43  30  61 CALM      30.09R
GLENCOE        CLOUDY    46  42  83 CALM      30.09F
OWATONNA       CLOUDY    45  37  76 E6        30.09S
WASECA         CLOUDY    45  37  76 E6        30.11R
ALBERT LEA     CLOUDY    45  39  81 E6        30.09R
$$
MNZ078>079-086>088-094>096-300500-
   Southeast Minnesota

CITY           SKY/WX    TMP DP  RH WIND       PRES   REMARKS
ROCHESTER      CLOUDY    43  39  86 NE6       30.08F
RED WING       CLOUDY    43  39  87 CALM      30.11F
STANTON        CLOUDY    46  39  77 CALM      30.09F
DODGE CENTER   CLOUDY    43  37  81 E6        30.08F
WINONA         CLOUDY    43  41  93 CALM      30.11F
AUSTIN         CLOUDY    46  39  76 E5        30.10R
PRESTON        CLOUDY    44  38  79 NE3       30.09S
$$
ABBREVIATIONS USED IN REMARKS
   TC - TEMPERATURES IN CELSIUS
  WCI - WIND CHILL INDEX
   HX - HEAT INDEX
  VSB - VISIBILITY
$$




USA.gov is the U.S. government's official web portal to all federal, state and local government web resources and services.